User: anonymous   Login
Location: Unspecified
(0.0000°N, 0.0000°E)
Time: 00:16:32
(UTC+00:00)
Language:

Amsat-Oscar-6 - Orbit

View from above orbital plane
View from above orbital plane
View from above satellite
View from above satellite

Ground track
Ground track

The orbit data is extracted from the following two-line orbital elements,

1 06236U 72082B   17230.84503569 -.00000033  00000-0  72076-4 0  9992
2 06236 101.7156 195.1813 0003879 193.6914 220.1440 12.53138689 51250
Epoch (UTC): 18 August 2017 20:16:51
Eccentricity: 0.0003879
inclination: 101.7156°
perigee height: 1448 km
apogee height: 1454 km
right ascension of ascending node: 195.1813°
argument of perigee: 193.6914°
revolutions per day: 12.53138689
mean anomaly at epoch: 220.1440°
orbit number at epoch: 5125

The dashed part of the orbit path shows where the satellite is in the earth's shadow,  

DLR